Find STARLINK-37527

NORAD ID: 70560 Constellation: starlink operational
LEOCIRCULARRETROGRADE

实时位置

正在加载3D地球...

关于 STARLINK-37527

正在加载描述...

即将过境

Passes for default location (London). Set your location on the main map for personalized predictions.

高度历史

Loading altitude history...

两行轨道根数

1 70560C 26097A 26121.86506944 -.00888310 00000+0 -13148-2 0 1211
2 70560 97.2860 316.5243 0007705 259.6353 258.2289 16.05340508 17
Epoch: May 1, 2026 • Age: 30 hours